Terug naar catalogus

USA 76

ActiefMilitairLEO
NORAD 21808·PAYLOAD·🇺🇸 United States

Gelanceerd Nov 8, 1991 vanaf Vandenberg Space Force Base

Loading…

Volgende Passages (komende 24 uur)

TLE

VersSource: Space-Track

Epoch: Sep 14, 2026, 11:59 UTC

1 21808U 91076D   26257.49980479  .00003434  00000-0  26716-3 0  9993
2 21808  63.2962 273.0796 0883211  76.1790 293.5838 13.60591116118186

Volg USA 76 in realtime met AllMySat

Download on the App Store